Home > Weather > Russia > Sochi > Past weeks

Flag for Russia Weather past 2 weeks in Sochi, Russia

52 °F


Feels Like: 47 °F
Forecast: 40 / 48 °F
Wind: 13 mph from Southeast

Location: Adler

Current Time: Dec 2, 2015 at 1:49:28 AM

Latest Report: Dec 2, 2015 at 1:00 AM

Visibility: N/A

Pressure: 29.98 "Hg

Humidity: 67%

Dew point: 41 °F

Location of SochiLocation

Historic Weather in Sochi — Graph


Sochi temperature yesterday

Maximum temperature yesterday: 52 °F (at 11:00 AM)
Minimum temperature yesterday: 43 °F (at 10:00 PM)
Average temperature yesterday: 48 °F

Past Weeks' High & Low Weather Summary

High70 °F (Nov 22, 11:30 AM)94% (Nov 29, 6:00 PM)30.27 "Hg (Nov 29, 6:00 PM)
Low37 °F (Nov 18, 5:30 AM)21% (Nov 22, 11:30 AM)29.74 "Hg (Nov 17, 12:00 AM)
Average53 °F63%30.04 "Hg
* Reported Midnight between Nov 16 and Nov 17 — Dec 2 12:30 AM, Sochi, Weather by CustomWeather, © 2015

Note: Actual official high and low records may vary slightly from our data, if they occured in-between our weather recording intervals... More about our weather records


Sochi weather history for previous 24 hours

Time TempWeatherWind HumidityBarometerVisibility
12:30 AM
Wed, Dec 2
50 °FSprinkles. Overcast.10 mph71%29.98 "HgN/A
12:00 AM50 °FSprinkles. Overcast.10 mph71%30.01 "HgN/A
11:30 PM
Tue, Dec 1
50 °FSprinkles. Overcast.15 mph71%30.01 "HgN/A
11:00 PM50 °FOvercast.8 mph71%30.01 "HgN/A
10:30 PM46 °FSprinkles. Overcast.6 mph87%30.01 "HgN/A
10:00 PM43 °FSprinkles. Overcast.13 mph87%30.04 "HgN/A
9:30 PM45 °FSprinkles. Mostly cloudy.6 mph87%30.07 "HgN/A
9:00 PM46 °FMostly cloudy.3 mph82%30.07 "Hg6 mi
8:30 PM46 °FThundershowers. Overcast.8 mph82%30.07 "HgN/A
8:00 PM46 °FThundershowers. Overcast.6 mph82%30.07 "HgN/A
7:30 PM48 °FThundershowers. Overcast.3 mph82%30.07 "HgN/A
7:00 PM46 °FThunderstorms. Overcast.3 mph87%30.07 "Hg4 mi
6:30 PM46 °FSprinkles. Overcast.6 mph87%30.07 "HgN/A
6:00 PM46 °FSprinkles. Overcast.3 mph93%30.07 "Hg5 mi
5:30 PM46 °FSprinkles. Overcast.3 mph87%30.07 "HgN/A
5:00 PM46 °FSprinkles. Overcast.3 mph87%30.07 "HgN/A
4:30 PM48 °FSprinkles. Overcast.6 mph82%30.07 "Hg6 mi
4:00 PM48 °FOvercast.6 mph82%30.07 "HgN/A
3:30 PM48 °FSprinkles. Overcast.6 mph87%30.09 "Hg6 mi
3:00 PM48 °FSprinkles. Overcast.3 mph87%30.09 "Hg6 mi
2:30 PM48 °FSprinkles. Overcast.1 mph87%30.09 "Hg5 mi
2:00 PM48 °FSprinkles. Partly sunny.3 mph82%30.09 "HgN/A
1:30 PM48 °FPartly sunny.3 mph82%30.09 "HgN/A
1:00 PM50 °FSprinkles. Partly sunny.3 mph71%30.09 "HgN/A
12:30 PM48 °FSprinkles. Partly sunny.6 mph76%30.09 "HgN/A
12:00 PM48 °FThundershowers. Partly sunny.3 mph87%30.09 "Hg6 mi
11:30 AM52 °FThundershowers. Partly sunny.1 mph67%30.09 "HgN/A
11:00 AM52 °FBroken clouds.3 mph72%30.09 "HgN/A
10:30 AM50 °FPartly sunny.8 mph76%30.09 "HgN/A
10:00 AM48 °FPartly sunny.3 mph87%30.09 "HgN/A
9:30 AM46 °FPartly sunny.3 mph93%30.09 "HgN/A
9:00 AM46 °FBroken clouds.3 mph87%30.09 "HgN/A
8:30 AM46 °FPassing clouds.3 mph87%30.07 "HgN/A
8:00 AM46 °FPassing clouds.6 mph87%30.07 "HgN/A
7:30 AM46 °FPassing clouds.3 mph93%30.07 "HgN/A
7:00 AM46 °FOvercast.No wind93%30.04 "HgN/A
6:30 AM46 °FOvercast.1 mph93%30.04 "HgN/A
5:30 AM46 °FSprinkles. Overcast.No wind93%30.04 "HgN/A
5:00 AM46 °FSprinkles. Overcast.1 mph93%30.01 "HgN/A
3:30 AM48 °FSprinkles. Overcast.3 mph87%30.01 "Hg4 mi
3:00 AM48 °FSprinkles. Overcast.1 mph94%30.01 "Hg4 mi
2:30 AM48 °FSprinkles. Overcast.1 mph94%30.01 "Hg6 mi
2:00 AM48 °FSprinkles. Overcast.3 mph94%30.01 "Hg6 mi
1:30 AM48 °FSprinkles. Overcast.1 mph94%30.01 "Hg6 mi
1:00 AM50 °FSprinkles. Overcast.3 mph88%30.01 "HgN/A
Weather by CustomWeather, © 2015

See weather overviewHow to use our weather pages